Regional Weather Roundup
Issued by NWS

Home | Current Version | Previous Version | Text Only | Print | Product List | Glossary On
Versions: 1 2 3 4 5 6 7 8 9 10 11 12 13 14 15 16 17 18 19 20 21 22 23 24 25 26 27 28 29 30 31 32 33 34 35 36 37 38 39 40 41 42 43 44 45 46 47 48 49 50
000
ASUS44 KFWD 062315
RWRTX
NORTH TEXAS HOURLY WEATHER ROUNDUP
NATIONAL WEATHER SERVICE FORT WORTH TX
600 PM CDT MON JUL 06 2015

NOTE: "FAIR" INDICATES FEW OR NO CLOUDS BELOW 12,000 FEET WITH NO
SIGNIFICANT WEATHER AND/OR OBSTRUCTIONS TO VISIBILITY.

TXZ118-119-070000-
DALLAS/FORT WORTH METROPLEX

CITY           SKY/WX    TMP DP  RH WIND       PRES   REMARKS
DFW AIRPORT    PTSUNNY   91  66  43 S22G36    29.89F HX  93
DALLAS LOVE    PTSUNNY   92  66  42 S23G33    29.90F HX  94
FTW MEACHAM    MOSUNNY   92  67  43 S25G33    29.89F HX  95
DAL-EXECUTIVE  MOSUNNY   90  66  45 S18G29    29.91F HX  92
FTW-ALLIANCE   PTSUNNY   91  67  44 S17G29    29.88F HX  94
FTW-NAS-JRB    MOSUNNY   93  67  42 S21G31    29.90F HX  96
FTW-SPINKS     MOSUNNY   91  66  43 SE17G25   29.93F HAZE    HX  94
ARLINGTON      MOSUNNY   91  64  40 S16G30    29.91F HX  92
GRAND PRAIRIE  SUNNY     91  68  46 S15G23    29.93F HX  95
ADDISON        PTSUNNY   91  64  40 S17G35    29.92F HX  93
MESQUITE       MOSUNNY   91  66  43 SE20        N/A  HX  94
LANCASTER      MOSUNNY   90  66  44 S14G24    29.93F HX  92
$$

TXZ091>094-102>105-117-120-121-131>134-070000-
NORTH CENTRAL TEXAS

CITY           SKY/WX    TMP DP  RH WIND       PRES   REMARKS
SHRMAN/DENISON PTSUNNY   89  70  53 S18G25    29.90F HX  94
GAINESVILLE    MOSUNNY   89  67  47 S22G28    29.89F HX  92
BRIDGEPORT     SUNNY     92  67  43 S14       29.90F HX  95
DECATUR        SUNNY     91  63  39 S18G26    29.89F HX  92
DENTON         SUNNY     90  68  48 S21G30    29.89F HX  94
MCKINNEY       MOSUNNY   90  67  46 S24G30    29.90F HX  93
GREENVILLE     MOSUNNY   90  66  45 S18G24    29.92F HX  92
ROCKWALL       MOSUNNY   91  69  48 S20G29    29.90F HX  95
TERRELL        MOSUNNY   90  70  51 S18G25    29.93F HX  95
WAXAHACHIE     MOSUNNY   90  68  47 S18G24    29.94F HX  93
CLEBURNE       SUNNY     90  68  48 S22G28    29.93F HX  93
GRANBURY       CLOUDY    94  64  37 S18G28    29.91F HX  95
$$

TXZ083>090-098>101-113>116-127>130-139>142-154-155-070000-
WESTERN NORTH TEXAS

CITY           SKY/WX    TMP DP  RH WIND       PRES   REMARKS
WICHITA FALLS  MOSUNNY   91  69  48 S22       29.83F HX  96
WF-KICKAPOO    MOSUNNY   95  66  38 S15G25    29.85F HX  98
VERNON         SUNNY     97  64  33 SE20G25   29.83F HX  98
ABILENE        MOSUNNY   94  65  38 S17G28    29.88F HX  96
ABILENE-DYESS  SUNNY     93  70  46 S17G23    29.86F HX  99
BRECKENRIDGE   SUNNY     94  60  31 S16G24    29.87F HX  94
GRAHAM         SUNNY     94  66  39 S13G18    29.85F HX  96
MINERAL WELLS  SUNNY     91  66  43 S18G26    29.87F HX  93
STEPHENVILLE   SUNNY     90  64  42 S16       29.95F HX  91
COMANCHE       SUNNY     91  65  42 S16G28    29.92F HX  92
BROWNWOOD      SUNNY     93  61  33 S20G28    29.91F HX  93
COLEMAN        SUNNY     93  63  37 S18G26    29.91F HX  94
BRADY          SUNNY     90  63  40 NE17      29.93F HX  90
$$

TXZ143>147-156>162-174-175-070000-
CENTRAL TEXAS

CITY           SKY/WX    TMP DP  RH WIND       PRES   REMARKS
WACO           MOSUNNY   91  69  48 S23G31    29.93F HX  96
WACO-TSTC      SUNNY     90  72  55 SE12G17   29.94F HX  96
WACO-MCGREGOR  MOSUNNY   91  66  43 S22       29.94F HX  94
HILLSBORO      MOSUNNY   90  65  44 S22G28    29.94F HX  91
CORSICANA      MOSUNNY   91  70  49 S14G25    29.96F HX  96
MEXIA          MOSUNNY   89  68  50 SE22      29.95F HX  92
HEARNE         MOSUNNY   90  72  55 SE15G21   29.98F HX  96
CAMERON        MOSUNNY   91  73  55 S16G23    29.95F HX  98
TEMPLE         MOSUNNY   90  66  45 SE22G30   29.94F HX  92
KILLEEN        MOSUNNY   88  69  52 SE24      29.94F HX  92
KILLEEN-SKYLRK MOSUNNY   90  68  48 S18G26    29.94F HX  93
FORT HOOD      MOSUNNY   90  68  49 SE21      29.93F HX  93
GATESVILLE     MOSUNNY   91  66  43 S20G25    29.96F HX  94
HAMILTON       MOSUNNY   90  66  45 S16G22    29.95F HX  92
LAMPASAS       MOSUNNY   91  69  49 S12G21    29.95S HX  95
$$

TXZ095>097-106>112-122>126-135>138-148>153-164>167-070000-
EAST TEXAS

CITY           SKY/WX    TMP DP  RH WIND       PRES   REMARKS
PARIS          MOSUNNY   90  70  51 S18G24    29.93F HX  95
SULPHUR SPRNGS MOSUNNY   90  67  47 S18G24    29.96F HX  93
MOUNT PLEASANT MOSUNNY   91  69  48 S12G20    29.96F HX  95
GILMER         PTSUNNY   88  71  56 S10G18    29.97F HX  93
MINEOLA        MOSUNNY   90  70  51 S13       29.96F HX  95
TYLER          MOSUNNY   91  72  53 S13       29.96F HX  98
LONGVIEW       MOSUNNY   90  72  55 S15       29.97F HX  97
MARSHALL         N/A     94  74  52 S13G18    30.00F HX 103
ATHENS         MOSUNNY   90  70  51 S10G16    29.95F HX  95
PALESTINE      MOSUNNY   91  71  52 SE8       29.98F HX  98
JACKSONVILLE   MOSUNNY   90  70  51 S9        30.01F HX  95
HENDERSON      MOSUNNY   88  71  57 S14       30.00F HX  94
CENTER         FAIR      89  71  55 S8        29.99F HX  95
NACOGDOCHES    MOSUNNY  N/A N/A N/A S10       29.99F
LUFKIN         MOSUNNY   92  69  47 S10       30.00F HX  97
$$

SUPPLEMENTAL OBSERVATIONS (CENTRAL)

CITY           SKY/WX    TMP DP  RH WIND       PRES   REMARKS
LAKE TEXOMA      N/A     90  68  48 S13         N/A  HX  93
CADDO GRASSLND   N/A     90  68  48 S18         N/A  HX  93
PAT MAYSE LAKE   N/A     86  72  62 SE18        N/A  HX  92
GREENVILLE       N/A     90  68  48 S12G22      N/A  HX  93
CEDAR HILL       N/A     91  66  43 S14G22      N/A  HX  94
MCGREGOR         N/A     90  64  43 S21G26      N/A  HX  91
$$

SUPPLEMENTAL OBSERVATIONS (WEST)

CITY           SKY/WX    TMP DP  RH WIND       PRES   REMARKS
MILLERS CREEK    N/A     93  70  46 S18G25      N/A  HX  99
LBJ GRASSLAND    N/A     90  64  43 S16G22      N/A  HX  91
HAMBY            N/A     95  63  34 S17G25      N/A  HX  96
IVIE RESERVOIR   N/A     93  59  31 SE18G26     N/A  HX  92
COLORADO BEND    N/A     90  63  40 SW15G23     N/A  HX  90
$$

SUPPLEMENTAL OBSERVATIONS (EAST)

CITY           SKY/WX    TMP DP  RH WIND       PRES   REMARKS
CLARKSVILLE      N/A     90  70  51 S15G22      N/A  HX  95
CADDO LAKE       N/A     90  72  55 S2G10       N/A  HX  96
GILMER           N/A     90  70  51 S7G17       N/A  HX  95
HENDERSON        N/A     90  72  55 S14G22      N/A  HX  96
LUFKIN           N/A     90  70  51 MISG        N/A  HX  95
N SABINE NF      N/A     91  75  59 MISG        N/A  HX 102
S SABINE NF      N/A     90  68  48 CALM        N/A  HX  93
$$

SUPPLEMENTAL OBSERVATIONS ARE A COLLECTION OF AUTOMATED INSTRUMENTS
THAT ARE MAINTAINED BY A VARIETY OF FEDERAL AND STATE AGENCIES.
CERTAIN ELEMENTS...SUCH AS HUMIDITY VALUES AND SUSTAINED WIND
SPEEDS...MAY BE APPROXIMATED.




USA.gov is the U.S. government's official web portal to all federal, state and local government web resources and services.